Location: Lawrence Hall of Science
(37.8785°N, 122.2415°W)
Time: 11:51:21
(UTC-08:00)

Daily predictions for brighter satellites

Satellite Brightness Start Highest point End
(mag) Time Altitude Azimuth Time Altitude Azimuth Time Altitude Azimuth
CORIOLIS 4.4 17:17:06 10° SE 17:22:17 48° ENE 17:27:27 10° N
Cosmos 1048 Rocket 4.0 17:18:42 10° NNW 17:24:00 69° ENE 17:29:19 10° SSE
Cosmos 2341 Rocket 4.0 17:19:28 10° N 17:25:43 78° E 17:31:55 10° S
CZ-3B DEB 2.0 17:23:06 10° SSW 17:26:05 48° ESE 17:33:10 10° NE
Cosmos 158 Rocket 4.2 17:21:16 10° N 17:26:29 49° ENE 17:31:33 10° SE
Cosmos 2278 Rocket 3.4 17:22:59 10° SSE 17:27:15 22° E 17:31:31 10° NE
COSMOS 2406 3.3 17:21:56 10° NNW 17:27:33 54° ENE 17:33:09 10° SE
CZ-3A R/B 3.4 17:24:08 10° WSW 17:28:05 54° NNW 17:46:14 10° NE
Cosmos 1484 Rocket 3.9 17:27:47 10° ESE 17:30:39 21° ENE 17:33:30 10° NNE
CZ-2C R/B 2.4 17:29:48 10° SSE 17:34:40 71° ENE 17:39:43 10° N
SPOT 3 Rocket 3.5 17:31:53 10° SSE 17:37:04 79° ENE 17:42:16 10° N
Meteor 1-5 Rocket 4.1 17:33:04 10° N 17:38:26 67° E 17:43:58 10° SSE
Cosmos 1238 Rocket 2.9 17:38:38 10° SSE 17:41:21 30° E 17:43:57 10° NNE
CRYOSAT 2 4.4 17:42:52 10° N 17:47:48 86° W 17:52:41 10° S
Okean 1 4.1 17:46:57 10° SSE 17:50:29 30° E 17:53:41 12° NNE
IDEFIX/ARIANE 42P 2.7 17:46:13 10° S 17:51:25 82° WSW 17:56:39 10° NNW
Cosmos 1536 3.8 17:48:05 10° NNW 17:52:02 52° W 17:55:59 10° S
COSMOS 2441 4.4 17:47:24 10° SSE 17:52:07 55° ENE 17:56:54 10° N
Cosmos 2082 Rocket 3.9 17:50:39 10° NNE 17:52:44 13° NE 17:52:44 13° NE
USA 32 4.0 17:50:14 10° S 17:55:27 84° E 18:00:42 10° N
Hubble Space Telescope 3.3 17:54:49 10° SW 17:57:26 16° SSW 18:00:02 10° SSE
COSMO-SKYMED 1 2.7 17:54:47 10° NNE 17:59:02 51° E 18:03:14 10° S
OPS 8737 4.4 17:57:38 10° SSW 18:01:02 56° ESE 18:02:34 26° NE
Cosmos 1544 Rocket 3.5 17:56:56 10° N 18:01:23 71° E 18:05:50 10° SSE
BREEZE-M R/B 4.5 17:49:51 10° SW 18:01:54 76° SE 18:05:51 21° ENE
Cosmos 1975 Rocket 4.2 17:58:11 10° SSW 18:02:17 44° W 18:06:26 10° N
Cosmos 1500 4.3 17:59:34 10° NNE 18:03:19 23° E 18:05:54 10° SE
Cosmos 864 Rocket 4.5 17:59:36 10° N 18:05:51 67° E 18:12:07 10° SSE
Meteor 1-28 Rocket 3.9 18:04:52 25° ENE 18:06:09 32° E 18:09:34 10° SSE
SMAP 4.0 18:02:38 10° S 18:07:09 51° W 18:11:41 10° NNW
SL-24 DEB 4.2 18:02:48 10° N 18:07:33 67° E 18:12:12 10° S
Meteor 1-18 Rocket 4.1 18:02:24 10° S 18:07:58 74° E 18:13:40 10° NNE
CZ-4 R/B 3.5 18:07:08 10° SSW 18:10:52 31° W 18:14:37 10° NW
Cosmos 1346 Rocket 3.3 18:10:09 10° SSE 18:13:43 34° E 18:14:10 33° ENE
MSX 4.0 18:09:05 10° S 18:14:50 78° WSW 18:20:37 10° NNW
Cosmos 1812 2.8 18:14:38 10° S 18:18:29 80° W 18:22:22 10° N
Cosmos 1536 Rocket 3.5 18:14:16 10° S 18:18:42 80° E 18:23:12 10° N
NOAA 12 4.3 18:16:39 10° SE 18:21:39 44° ENE 18:26:38 10° N
YAOGAN 1 4.4 18:21:19 10° SSW 18:25:11 32° W 18:29:06 10° NNW
OTV 4 1.1 18:23:21 10° W 18:26:16 48° SSW 18:26:41 44° SSE
Cosmos 494 Rocket 3.9 18:22:34 10° NNW 18:27:49 74° ENE 18:33:03 10° SSE
Cosmos 1975 2.7 18:28:24 10° N 18:32:29 80° E 18:36:32 10° S
BREEZE M DEB (TANK) 4.3 18:30:02 10° NW 18:33:41 31° NNE 18:34:57 29° NE
Cosmos 2251 Rocket 3.6 18:29:58 10° NNW 18:35:21 81° WSW 18:40:39 10° SSE
NOSS 3-3 (A) 3.9 18:30:06 10° SSW 18:36:15 81° ESE 18:39:53 28° NE
NOSS 3-3 (C) 3.9 18:30:13 10° SSW 18:36:20 81° ESE 18:39:57 28° NE
SL-27 R/B 3.5 18:34:50 10° NNW 18:38:23 47° WSW 18:41:52 10° S
Meteor 1-12 Rocket 4.4 18:33:19 10° NNW 18:39:05 76° W 18:44:57 10° S
Okean 1-7 Rocket 4.1 18:35:30 10° SSE 18:38:57 41° SE 18:38:57 41° SE
ISS -1.3 18:41:31 10° W 18:44:09 22° NNW 18:44:12 22° NNW
Cosmos 1844 Rocket 4.2 18:40:21 10° SW 18:45:21 33° WNW 18:50:25 10° N
ATLAS 2AS CENTAUR R/B 3.0 18:39:08 10° NNW 18:47:14 86° WSW 18:54:41 10° SSE
Meteor 2-21 Rocket 4.3 18:41:46 10° N 18:47:57 67° E 18:54:04 10° SSE
GEOS 3 Rocket 3.9 18:45:49 10° SSE 18:50:53 65° WSW 18:55:59 10° NW
Cosmos 1455 Rocket 4.5 18:47:03 10° NNW 18:51:08 38° W 18:55:14 10° SSW
Cosmos 2297 3.6 18:47:39 10° S 18:53:10 59° ESE 18:53:32 58° E
Meteor 2-16 Rocket 4.3 18:48:20 10° N 18:54:22 61° E 19:00:21 10° SSE
SL-8 R/B 3.6 18:49:53 10° WSW 18:54:40 77° NNW 18:55:03 71° NNE
SL-24 R/B - RUBIN 2 4.4 18:49:09 10° SSW 18:55:14 65° ESE 18:56:35 52° ENE
Timation 2 Rocket 4.2 18:51:21 10° NNW 18:57:59 52° ENE 18:58:19 51° ENE
Cosmos 1535 Rocket 4.4 18:52:47 10° N 18:59:00 58° E 19:05:08 10° SSE
Meteor 1-19 Rocket 4.1 18:53:27 10° S 18:59:09 70° E 19:00:14 57° NE
BREEZE M DEB (TANK) 2.7 18:53:24 10° WSW 19:01:05 65° NW 19:01:08 65° NNW
Cosmos 1241 Rocket 4.4 18:59:56 10° NNW 19:06:37 85° ENE 19:09:19 39° SSE
Timation 1 Rocket 4.3 19:02:32 10° S 19:07:54 62° SE 19:07:54 62° SE
Cosmos 2278 Rocket 3.1 19:05:33 10° SW 19:10:56 46° WNW 19:13:52 25° N
Tiangong 1 4.3 19:09:56 10° SW 19:10:03 11° SW 19:10:03 11° SW
Meteor 1-13 Rocket 4.4 19:07:19 10° SSW 19:12:54 71° W 19:15:32 33° N
Cosmos 2239 Rocket 4.3 19:11:48 10° N 19:18:03 85° E 19:24:13 10° S
Cosmos 1821 Rocket 4.3 19:19:45 10° N 19:30:13 20° S 19:31:58 10° S
Cosmos 2082 Rocket 3.8 19:32:25 10° NNW 19:34:39 25° NNW 19:34:39 25° NNW
ATLAS 3B CENTAUR R/B 3.8 19:49:19 10° WSW 19:59:39 37° SSW 19:59:39 37° SSW
CZ-3B DEB 4.3 19:57:17 10° WNW 20:02:45 33° N 20:03:16 33° N
FALCON 9 R/B 4.0 20:22:32 10° W 20:31:06 39° WSW 20:31:06 39° WSW
